CHX85 EDAQ-EDAQ

Flight info

Callsign CHX85
Flight time 0h 0m
Altitude
Route CFR
Aircraft EC45

Departure

Time 2026-05-04 18:37
Airport Halle-Oppin Airfield (EDAQ)

Arrival

Time 2026-05-04 18:38
Airport Halle-Oppin Airfield (EDAQ)
Time Latitude Longitude Altitude Speed Heading
2026-05-04 18:34 51.55166 12.05001 350 ft 0 kts 13°
2026-05-04 18:37 51.55172 12.05036 464 ft 10 kts 24°
2026-05-04 18:37 51.55113 12.05292 825 ft 39 kts 119°
2026-05-04 18:37 51.54953 12.05763 1219 ft 55 kts 116°
2026-05-04 18:37 51.54747 12.06283 1524 ft 55 kts 123°
2026-05-04 18:38 51.54620 12.06604 1809 ft 10 kts 143°
2026-05-04 18:38 51.54761 12.06354 1833 ft 41 kts 126°
2026-05-04 18:38 51.54884 12.06015 1862 ft 22 kts 126°
2026-05-04 18:38 51.54840 12.05939 1827 ft 24 kts 136°
2026-05-04 18:39 51.54569 12.06071 1820 ft 57 kts 153°
2026-05-04 18:39 51.54223 12.06541 1815 ft 73 kts 137°
2026-05-04 18:39 51.53750 12.06962 1924 ft 82 kts 153°
2026-05-04 18:39 51.53230 12.07354 2036 ft 82 kts 154°
2026-05-04 18:40 51.52726 12.07757 2059 ft 80 kts 152°
2026-05-04 18:40 51.52244 12.08161 2085 ft 77 kts 151°
2026-05-04 18:40 51.51782 12.08570 2114 ft 75 kts 149°
2026-05-04 18:40 51.51338 12.08985 2150 ft 73 kts 148°
2026-05-04 18:41 51.50911 12.09404 2191 ft 71 kts 146°
2026-05-04 18:41 51.50507 12.09846 2154 ft 69 kts 142°
2026-05-04 18:41 51.50131 12.10313 2123 ft 67 kts 139°
2026-05-04 18:41 51.49785 12.10803 2098 ft 65 kts 135°
2026-05-04 18:42 51.49467 12.11313 2079 ft 64 kts 131°
2026-05-04 18:42 51.49173 12.11840 2065 ft 63 kts 128°
2026-05-04 18:42 51.48890 12.12392 1995 ft 73 kts 125°
2026-05-04 18:42 51.48552 12.13141 1811 ft 87 kts 121°
2026-05-04 18:43 51.48228 12.13953 1701 ft 86 kts 120°
2026-05-04 18:43 51.47908 12.14761 1595 ft 85 kts 121°
2026-05-04 18:43 51.47571 12.15536 1501 ft 84 kts 125°
2026-05-04 18:43 51.47206 12.16276 1394 ft 85 kts 129°
2026-05-04 18:44 51.46803 12.16992 1246 ft 91 kts 131°
2026-05-04 18:44 51.46653 12.17244 1221 ft 96 kts 133°
2026-05-04 18:44 51.45778 12.18566 1244 ft 107 kts 137°
2026-05-04 18:44 51.45202 12.19315 1318 ft 106 kts 142°
2026-05-04 18:45 51.44589 12.20023 1336 ft 113 kts 144°
2026-05-04 18:45 51.43916 12.20748 1364 ft 121 kts 146°
2026-05-04 18:45 51.43203 12.21446 1441 ft 120 kts 149°
2026-05-04 18:45 51.42489 12.22098 1553 ft 119 kts 150°
2026-05-04 18:46 51.41755 12.22737 1567 ft 124 kts 150°
2026-05-04 18:46 51.40993 12.23387 1608 ft 123 kts 151°
2026-05-04 18:46 51.40260 12.24011 1783 ft 113 kts 151°
2026-05-04 18:46 51.39573 12.24628 1882 ft 114 kts 149°
2026-05-04 18:47 51.38894 12.25248 2065 ft 107 kts 150°
2026-05-04 18:47 51.38260 12.25813 2223 ft 109 kts 150°
2026-05-04 18:47 51.37547 12.26437 2158 ft 123 kts 149°
2026-05-04 18:47 51.36779 12.27120 2109 ft 128 kts 149°
2026-05-04 18:48 51.35997 12.27834 2039 ft 132 kts 148°
2026-05-04 18:48 51.35212 12.28565 1979 ft 133 kts 147°
2026-05-04 18:48 51.34456 12.29406 1932 ft 132 kts 139°
2026-05-04 18:48 51.33841 12.30467 1923 ft 128 kts 117°
2026-05-04 18:49 51.33609 12.31812 1906 ft 124 kts 89°
2026-05-04 18:49 51.33666 12.33170 1510 ft 119 kts 81°
2026-05-04 18:49 51.33801 12.34466 1068 ft 110 kts 79°
2026-05-04 18:49 51.34022 12.35409 1001 ft 68 kts 36°
2026-05-04 18:50 51.34386 12.35387 869 ft 60 kts 314°
2026-05-04 18:50 51.34401 12.34929 590 ft 43 kts 199°
2026-05-04 18:50 51.34214 12.34953 376 ft 26 kts 93°
2026-05-04 18:50 51.34207 12.35069 352 ft 0 kts 310°
2026-05-04 18:54 51.34222 12.35074 492 ft 8 kts 337°
2026-05-04 18:54 51.34308 12.35118 1007 ft 18 kts 301°
2026-05-04 18:55 51.34500 12.35082 1505 ft 39 kts 303°
2026-05-04 18:55 51.35256 12.34672 2081 ft 77 kts 327°
2026-05-04 18:55 51.35848 12.34309 2024 ft 103 kts 327°
2026-05-04 18:56 51.36526 12.33787 1911 ft 116 kts 322°
2026-05-04 18:56 51.37219 12.33029 1759 ft 124 kts 316°
2026-05-04 18:56 51.37903 12.32220 1776 ft 120 kts 320°
2026-05-04 18:56 51.38607 12.31476 1762 ft 118 kts 328°
2026-05-04 18:57 51.39345 12.31019 1852 ft 111 kts 339°
2026-05-04 18:57 51.40079 12.30783 1884 ft 107 kts
2026-05-04 18:57 51.40850 12.30814 1808 ft 108 kts
2026-05-04 18:57 51.41577 12.30911 1895 ft 102 kts
2026-05-04 18:58 51.42251 12.31030 2018 ft 95 kts
2026-05-04 18:58 51.42875 12.31149 2145 ft 94 kts
2026-05-04 18:58 51.43474 12.30744 1980 ft 108 kts 306°
2026-05-04 18:58 51.43678 12.29491 1655 ft 126 kts 268°
2026-05-04 18:59 51.43584 12.28016 913 ft 137 kts 250°
2026-05-04 18:59 51.43433 12.27094 735 ft 122 kts 256°
2026-05-04 18:59 51.43248 12.25617 630 ft 81 kts 285°
2026-05-04 18:59 51.43200 12.24803 518 ft 67 kts 304°
2026-05-04 19:00 51.43224 12.24036 536 ft 73 kts 279°
2026-05-04 19:00 51.43226 12.23466 540 ft 81 kts 268°
2026-05-04 19:00 51.43182 12.22275 637 ft 74 kts 274°
2026-05-04 19:00 51.43279 12.21381 816 ft 92 kts 289°
2026-05-04 19:01 51.43584 12.20469 1042 ft 88 kts 318°
2026-05-04 19:01 51.44127 12.20123 1329 ft 84 kts 347°
2026-05-04 19:01 51.44738 12.20016 1493 ft 93 kts 355°
2026-05-04 19:01 51.45401 12.19944 1603 ft 103 kts 355°
2026-05-04 19:02 51.45897 12.19902 1622 ft 106 kts 357°
2026-05-04 19:02 51.46592 12.19874 1866 ft 98 kts
2026-05-04 19:02 51.47289 12.19868 1958 ft 105 kts 360°
2026-05-04 19:02 51.48012 12.19885 2103 ft 101 kts
2026-05-04 19:03 51.48739 12.19918 2160 ft 109 kts
2026-05-04 19:03 51.49805 12.19992 2024 ft 126 kts
2026-05-04 19:03 51.50417 12.20032 1876 ft 133 kts
2026-05-04 19:03 51.51517 12.19661 1205 ft 123 kts 320°
2026-05-04 19:04 51.51937 12.19005 675 ft 129 kts 311°
2026-05-04 19:04 51.52375 12.18016 472 ft 92 kts 300°
2026-05-04 19:04 51.52580 12.17160 399 ft 69 kts 227°
2026-05-04 19:04 51.52518 12.16989 354 ft 0 kts 110°